Showing default

STELLA, 22824

Orbit data source: Space-Track

STELLA, 22824 is a payload satellite owned by CNES (FR) in SSO that was launched on Sun, 26 Sep 1993 UTC via an ARIANE 40 launch vehicle from the French Guiana (FRGUI). Payload-class satellites include a variety of spacecraft equipped with specific instruments for various scientific and technological missions. These include communications satellites like Starlink; space stations such as the ISS; scientific satellites like the Hubble; Earth observation satellites from companies like Planet Labs, Umbra, and HawkEye 360; GPS; miniature CubeSats for education and research; and military/defense satellites.

Loading next visibility...
Identifier
22824, 1993-061B
Orbit
SSO
Country
Flag of FRFR
Related business
Manufacturer
CNES
Mission
Operational Civil Geodetic
Bus & Motor
STARLETTE, Unknown motor
Mass
48 kg wet, 48 kg dry
Launch date (UTC)
1993-09-26 (32 years ago)
Launch vehicle
ARIANE 40
Launch site
French Guiana (FRGUI)
Object type
Payload
Rocket body
Debris
Shape & HBR
Sphere, 0.1 m
Radar Cross Section
0.045 m², Medium (>0.1 m² and < 1m²)

Expand to show TLE details & history
Last TLE update: 19 hours ago

TLE from 19 hours ago
0 STELLA
1 22824U 93061B   25349.90516514 -.00000032  00000-0  54070-5 0  9998
2 22824  98.8007  48.2650 0007265  56.0492  49.0634 14.27464066678628
Epoch: 2025-12-15T21:43Z
TLE epoch observation values (Epoch: 2025-12-15T21:43:26.268Z)
Latitude
72.58028°
Longitude
-152.99695°
Altitude
809.261 km
Speed
7.457 km/s
True Right ascension
17h 10m 38s
True Declination
72° 28' 57"
Sunlit
Object was in daylight at epoch
Visualization orbit readout
Latitude
Unknown
Longitude
Unknown
Altitude
Unknown
Speed
Unknown
Apparent Right ascension
Unknown
Apparent Declination
Unknown
Sunlit
N/A
Visualization observer readout
Local Sidereal Time
15:40:36
Azimuth
Unknown
Elevation
Unknown
Doppler factor
Unknown
Orbital elements
Apogee altitude
802.586 km
Perigee altitude
792.16 km
Semi-major axis
7,175.51 km
Eccentricity
0.00073
Inclination
98.8007°
RAAN
48.265°
Arg. of periapsis
56.0492°
True anomaly
49.12633°
Mean anomaly
49.0634°
Eccentric anomaly
49.09486°
Mean motion
3.57079 °/min
Orbital period
100.82 mins
BSTAR
0.000005407
Loading maneuver chart data...
Computing Atmospheric mass density...
Loading historical data...
Loading historical data...
Loading historical data...
Loading historical data...
Loading historical data...
Loading historical data...
Loading historical data...

Documentation

Showing up to 5 results
|